Fort Knox, KY

11:40 PM EDT on April 23, 2018 (GMT -0400)
Godman Army Air Field

Weather History for KFTK - December, 2012

Change the Weather History Date:

Thursday, December 27, 2012

  Actual Average Record
Temperature  
Mean Temperature 30 °F -  
Max Temperature 32 °F 39 °F 68 °F (2008)
Min Temperature 29 °F 24 °F 8 °F (2017)
Degree Days  
Heating Degree Days 34    
Moisture  
Dew Point 26 °F    
Average Humidity 83    
Maximum Humidity 86    
Minimum Humidity 77    
Precipitation  
Precipitation 0.00 in - - ()
Sea Level Pressure  
Sea Level Pressure 30.13 in    
Wind  
Wind Speed 6 mph (WNW)    
Max Wind Speed 10 mph    
Max Gust Speed -    
Visibility 10 miles    
Events      
Averages and records for this station are not official NWS values.
T = Trace of Precipitation, MM = Missing Value Source: NWS Daily Summary

Daily Weather History Graph

Daily Weather History Graph

Search for Another Location

Airport or City:

Astronomy

Dec. 27, 2012 Rise Set
Actual Time 7:58 AM EST 5:31 PM EST
Civil Twilight 7:29 AM EST 6:01 PM EST
Nautical Twilight 6:56 AM EST 6:34 PM EST
Astronomical Twilight 6:24 AM EST 7:06 PM EST
Moon 5:14 PM EST (12/27) 7:09 AM EST (12/27)
Length of Visible Light 10h 32m
Length of Day
9h 33m
Full, 100% of the Moon is Illuminated
Dec 27
Full
Dec 28
Full
Jan 4
Last Quarter
Jan 11
New
Jan 18
First Quarter

Hourly Weather History & Observations

Time (EST) Temp. Windchill Dew Point Humidity Pressure Visibility Wind Dir Wind Speed Gust Speed Precip Events Conditions
12:05 AM 30.2 °F 21.3 °F 24.8 °F 80% 30.03 in 10.0 mi NNW 10.4 mph - N/A   Overcast
12:55 AM 30.2 °F 23.4 °F 26.1 °F 85% 30.04 in 10.0 mi West 6.9 mph - N/A   Overcast
1:55 AM 30.0 °F 22.4 °F 26.1 °F 85% 30.06 in 10.0 mi West 8.1 mph - N/A   Overcast
2:39 AM 30.2 °F 22.6 °F 26.6 °F 86% 30.08 in 10.0 mi West 8.1 mph - N/A   Overcast
2:55 AM 29.7 °F 22.0 °F 25.7 °F 85% 30.08 in 10.0 mi West 8.1 mph - N/A   Overcast
3:55 AM 29.7 °F 22.8 °F 25.9 °F 86% 30.10 in 10.0 mi West 6.9 mph - N/A   Overcast
4:19 AM 30.2 °F 21.3 °F 26.6 °F 86% 30.10 in 10.0 mi WNW 10.4 mph - N/A   Overcast
4:55 AM 30.0 °F 24.1 °F 25.7 °F 84% 30.09 in 10.0 mi West 5.8 mph - N/A   Overcast
5:34 AM 30.2 °F 24.3 °F 26.6 °F 86% 30.11 in 10.0 mi West 5.8 mph - N/A   Overcast
5:55 AM 30.2 °F 25.4 °F 26.2 °F 85% 30.12 in 10.0 mi WNW 4.6 mph - N/A   Overcast
6:55 AM 30.4 °F 24.5 °F 26.2 °F 85% 30.14 in 10.0 mi WNW 5.8 mph - N/A   Overcast
7:55 AM 30.4 °F 25.6 °F 26.2 °F 85% 30.15 in 10.0 mi WNW 4.6 mph - N/A   Overcast
8:55 AM 30.7 °F 27.3 °F 26.6 °F 85% 30.15 in 10.0 mi NW 3.5 mph - N/A   Overcast
9:55 AM 31.1 °F 23.7 °F 27.0 °F 85% 30.19 in 10.0 mi WNW 8.1 mph - N/A   Overcast
10:55 AM 31.5 °F 26.8 °F 27.0 °F 83% 30.20 in 10.0 mi NW 4.6 mph - 0.00 in   Overcast
11:55 AM 32.2 °F 25.8 °F 26.4 °F 79% 30.18 in 10.0 mi North 6.9 mph - 0.00 in   Overcast
12:55 PM 31.8 °F 28.5 °F 26.4 °F 80% 30.17 in 10.0 mi NW 3.5 mph - N/A   Overcast
1:55 PM 32.0 °F 28.7 °F 26.2 °F 79% 30.14 in 10.0 mi North 3.5 mph - N/A   Overcast
2:55 PM 32.4 °F - 25.9 °F 77% 30.14 in 10.0 mi Calm Calm - N/A   Overcast
3:55 PM 32.2 °F - 26.2 °F 79% 30.16 in 10.0 mi Calm Calm - N/A   Overcast
4:55 PM 32.4 °F - 26.4 °F 79% 30.17 in 10.0 mi Calm Calm - N/A   Overcast
5:55 PM 32.0 °F - 27.3 °F 83% 30.17 in 10.0 mi Calm Calm - N/A   Overcast
6:55 PM 32.2 °F - 26.2 °F 79% 30.16 in 10.0 mi Calm Calm - N/A   Overcast
7:55 PM 31.8 °F - 28.0 °F 86% 30.17 in 10.0 mi Calm Calm - N/A   Overcast
8:55 PM 32.0 °F - 27.0 °F 82% 30.17 in 10.0 mi Calm Calm - N/A   Overcast
9:55 PM 32.0 °F 28.7 °F 27.5 °F 83% 30.16 in 10.0 mi East 3.5 mph - N/A   Overcast
10:55 PM 31.6 °F 27.0 °F 26.4 °F 81% 30.16 in 10.0 mi East 4.6 mph - N/A   Overcast
11:55 PM 31.5 °F 25.8 °F 26.2 °F 81% 30.15 in 10.0 mi ESE 5.8 mph - N/A   Overcast